STARLINK-32170, 60591

Orbit data source: Space-Track

STARLINK-32170, 60591 is a payload satellite owned by SpaceX/Seattle (US) in LEO that was launched on Tue, 20 Aug 2024 UTC via an FALCON 9 launch vehicle from the Air Force Eastern Test Range (AFETR). Payload-class satellites include a variety of spacecraft equipped with specific instruments for various scientific and technological missions. These include communications satellites like Starlink; space stations such as the ISS; scientific satellites like the Hubble; Earth observation satellites from companies like Planet Labs, Umbra, and HawkEye 360; GPS; miniature CubeSats for education and research; and military/defense satellites.

Loading next visibility...
Identifier
60591, 2024-150J
Orbit
LEO
Country
Flag of USUS
Related business
Manufacturer
SpaceX/Seattle
Mission
Operational Commercial Communications
Bus & Motor
STARLINK V2M, Unknown motor
Mass
730 kg wet, ~700 kg dry
Launch date (UTC)
2024-08-20 (2 years ago)
Launch vehicle
FALCON 9
Launch site
Air Force Eastern Test Range (AFETR)
Object type
Payload
Rocket body
Debris
Shape & HBR
Box + 2 Pan, 17.7 m
Radar Cross Section
33.884 m², Large (>1 m²)

Expand to show TLE details & history
Last TLE update: 12 hours ago

TLE from 12 hours ago
0 STARLINK-32170
1 60591U 24150J   26171.34202774  .00001267  00000-0  54897-4 0  9992
2 60591  53.1599 190.5219 0001075  81.7206 278.3917 15.30200315103673
Epoch: 2026-06-20T08:12Z
TLE epoch observation values (Epoch: 2026-06-20T08:12:31.196Z)
Latitude
-0°
Longitude
158.83388°
Altitude
476.006 km
Speed
7.629 km/s
True Right ascension
12h 42m 05s
True Declination
0° 00' 00"
Sunlit
Object was in daylight at epoch
Visualization orbit readout
Latitude
Unknown
Longitude
Unknown
Altitude
Unknown
Speed
Unknown
Apparent Right ascension
Unknown
Apparent Declination
Unknown
Sunlit
N/A
Visualization observer readout
Local Sidereal Time
07:12:10
Azimuth
Unknown
Elevation
Unknown
Doppler factor
Unknown
Orbital elements
Apogee altitude
476.207 km
Perigee altitude
474.734 km
Semi-major axis
6,853.608 km
Eccentricity
0.00011
Inclination
53.1599°
RAAN
190.5219°
Arg. of periapsis
81.7206°
True anomaly
278.37951°
Mean anomaly
278.3917°
Eccentric anomaly
278.38561°
Mean motion
3.82529 °/min
Orbital period
94.11 mins
BSTAR
0.000054897
Loading maneuver chart data...
Computing Atmospheric mass density...
Loading historical data...
Loading historical data...
Loading historical data...
Loading historical data...
Loading historical data...
Loading historical data...
Loading historical data...

Documentation

Showing up to 5 results
|